Weather in Kirzhemany

Russia / Republic of Mordovia     54°37′54″N   45°50′52″E
temp.,
°C
wind,
m/s
gust,
m/s
humid.,
%
clouds,
%
prec.,
mm/h
press.,
hPa
HPBL,
m
3 march, wed
wed300:00−6w469650 0.0 1003106
03:00−6w499674 0.1 1004203
06:00−4nw6109295 0.1 1004625
09:00−6nw7108998 0.2 1007692
12:00−5nw71089100 0.1 1008692
15:00−5nw61088100 0.2 1009726
18:00−5wnw51090100 0.1 1009771
21:00−7w5119199 0.1 1010329
4 march, thu
thu400:00−7wsw6139544 0.1 1007373
03:00−4wsw6139472 0.3 1005582
06:00−3wsw81493100 0.4 1002747
09:00−2sw91592100 0.7 1000752
12:000wsw101696100 1.1 9971099
15:000w101698100 1.4 9971023
18:00−2w51279100 0.2 999435
21:00−4w4890100 0.2 1000194
5 march, fri
fri500:00−4wsw3393100 0.0 100075
03:00−5nw1197100 0.2 100021
06:00−5nnw1297100 0.9 100065
09:00−6n4795100 1.5 1002371
12:00−5n4689100 0.1 1004485
15:00−6nnw348767 0.1 1007429
18:00−12wnw11930 0.0 100921
21:00−12ssw22880 0.0 101121
6 march, sat
sat600:00−12ssw239538 0.0 101228
03:00−11ssw369665 0.1 1012124
06:00−12wsw4796100 0.1 1011155
09:00−8wnw479399 0.3 1011425
12:00−8nw4789100 0.1 1012548
15:00−8nw4788100 0.1 1012671
18:00−12nnw3595100 0.1 1012115
21:00−17wnw239676 0.1 101420
7 march, sun
sun700:00−18w339720 0.0 101433
03:00−19wsw349950 0.0 101455
06:00−19sw469963 0.0 101391
09:00−15sw6119270 0.0 1011307
12:00−10ssw81483100 0.0 1007697
15:00−8ssw101691100 0.3 10021192
18:00−6sw101792100 0.9 9981082
21:00−5sw91590100 1.9 995896